Regional Weather Roundup
Issued by NWS

Home | Current Version | Previous Version | Graphics & Text | Print | Product List | Glossary On
Versions: 1 2 3 4 5 6 7 8 9 10 11 12 13 14 15 16 17 18 19 20 21 22 23 24 25 26 27
000
ASUS45 KBOU 201307
RWRCO

WEATHER ROUNDUP FOR COLORADO
NATIONAL WEATHER SERVICE DENVER/BOULDER CO
600 AM MST MON FEB 20 2017

NOTE: "FAIR" INDICATES FEW OR NO CLOUDS BELOW 12000 FEET WITH NO
SIGNIFICANT WEATHER AND/OR OBSTRUCTIONS TO VISIBILITY.

COZ001>005-013-030-031-201400-
...NORTHWEST COLORADO...

CITY           SKY/WX    TMP DP  RH WIND       PRES   REMARKS
CRAIG          FOG       25  23  92 E5        30.08S VSB 1/4 WCI  19
HAYDEN         CLOUDY    25  19  80 CALM      30.08R VSB 1/4
MEEKER         CLOUDY    27  25  92 S3        30.10R
MOUNT WERNER   NOT AVBL
STEAMBOAT SPGS CLOUDY    24  24  98 CALM      30.07R VSB<1/4
WALDEN         NOT AVBL
$$

COZ006>008-011-201400-
...WEST CENTRAL VALLEYS...

CITY           SKY/WX    TMP DP  RH WIND       PRES   REMARKS
GRAND JUNCTION MOCLDY    38  38 100 SE7       30.10R
MONTROSE       MOCLDY    30  29  96 S3        30.15R
EAGLE          CLOUDY    30  29  96 S3        30.12R
RIFLE          CLOUDY    36  33  89 CALM      30.11R
DELTA          MOCLDY    37  36  96 CALM      30.13R
NUCLA          CLOUDY    32  30  93 E10       30.18R WCI  24
$$

COZ017>023-064>068-201400-
...SOUTHWEST COLORADO...

CITY           SKY/WX    TMP DP  RH WIND       PRES   REMARKS
DURANGO        FAIR      27  23  85 N6        30.11R WCI  20
CORTEZ         FAIR      31  30  96 E8        30.14R WCI  23
PAGOSA SPRINGS CLOUDY    27  27 100 CALM      30.11R
TELLURIDE      FAIR      21  20  94 SE5       30.16  WCI  15
WOLF CREEK PAS FAIR      10  10 100 CALM      30.14R
$$

COZ009-010-012-014-032>034-037-058>063-201400-
...CENTRAL COLORADO...

CITY           SKY/WX    TMP DP  RH WIND       PRES   REMARKS
ASPEN          MOCLDY    26  25  96 CALM      30.09R
BUENA VISTA    FAIR      27  16  64 W7        30.05R WCI  19
COPPER MTN     FAIR      18  10  73 MISG      30.03R
BERTHOUD PASS  CLOUDY    10   0  61 NW32G45   29.98R WCI -12
COTTONWOOD PAS FAIR      28  12  50 N3        30.04R
GUNNISON       FAIR      22  17  81 N5        30.10R WCI  16
KREMMLING      FAIR      27  21  80 E3        30.07R
LEADVILLE      FAIR      14   9  80 N3        30.05R
MONARCH PASS   CLOUDY    16  12  86 W20       30.15R WCI  -1
SALIDA         FAIR      34  17  49 NW9       30.12R WCI  26
SUNLIGHT       NOT AVBL
WILKERSON PASS FAIR      18   5  57 NW8G20    30.05R WCI   7
$$

COZ069>075-201400-
...SAN LUIS VALLEY/SANGRE DE CRISTO MOUNTAINS...

CITY           SKY/WX    TMP DP  RH WIND       PRES   REMARKS
ALAMOSA        FAIR      30  20  66 NW9       30.05R WCI  22
LA VETA PASS   FAIR      23  19  86 NE22G32   30.03R WCI   8
SAGUACHE       CLOUDY    32  21  64 N6        30.08R WCI  26
$$

COZ035-036-038>040-201400-
...NORTHERN COLORADO FRONT RANGE...

CITY           SKY/WX    TMP DP  RH WIND       PRES   REMARKS
DENVER INTL AP FAIR      31  19  61 W8        29.92R WCI  23
DMNS CITY PARK   N/A     42  11  28 N1        29.93S
AURORA         PTCLDY    36  14  40 W9        29.93R
FRONT RANGE AP NOT AVBL
ERIE MUNI ARPT FAIR      34  12  40 CALM      29.92S
BOULDER MUN AP FAIR      43  12  28 NW6       29.93R
CENTENNIAL     FAIR      41  12  30 W15       29.94R
BROOMFIELD     PTCLDY    41  12  30 NW16      29.93S
FORT COLLINS   FAIR      41  11  29 NW10      29.91R
LONGMONT       FAIR      39  19  43 W5        29.94R
$$

COZ041-046-047-076>085-087-088-201400-
...PIKES PEAK/PALMER DIVIDE AND SOUTHERN FOOTHILLS...

CITY           SKY/WX    TMP DP  RH WIND       PRES   REMARKS
COLO. SPRINGS  FAIR      32  13  45 NW8       29.96R WCI  25
A. F. ACADEMY  FAIR      32   9  38 N10       29.95R WCI  23
SCHRIEVER AFB  FAIR      36  11  34 NW13      29.95R
ELLICOTT       FAIR     N/A N/A N/A NE6       29.94R
FALCON         FAIR      32  10  40 W10       29.96R WCI  23
FORT CARSON    FAIR      32  18  58 CALM      29.95R
LIMON          FAIR      28  18  66 W13       29.91R WCI  17
MONUMENT HILL  FAIR      27  12  54 NW10      29.96R WCI  17
TRINIDAD       FAIR      32  19  58 S9        29.96R WCI  24
$$

COZ042>045-048>051-090-091-201400-
...NORTHEAST COLORADO...

CITY           SKY/WX    TMP DP  RH WIND       PRES   REMARKS
GREELEY ARPT   FAIR      38  18  44 N8        29.91R
AKRON          FAIR      36  17  46 W14       29.87R
BURLINGTON     FAIR      41  18  39 NW16      29.85R
WRAY           NOT AVBL
STERLING       FAIR      41  19  42 NW13      29.86R
HOLYOKE        FAIR      45  19  36 NW15      29.82S
FORT MORGAN    FAIR      40  17  39 W17G24    29.89S
$$

COZ086-089-092>099-201400-
...SOUTHEAST COLORADO...

CITY           SKY/WX    TMP DP  RH WIND       PRES   REMARKS
PUEBLO         FAIR      37  28  70 W8        29.95R
LA JUNTA       FAIR      41  30  65 NW9       29.92R
LAMAR          CLOUDY    44  28  53 W8        29.86R
SPRINGFIELD      N/A     43  29  57 NW16      29.88R
$$




USA.gov is the U.S. government's official web portal to all federal, state and local government web resources and services.